TimeEDT,TemperatureF,Dew PointF,Humidity,Sea Level PressureIn,VisibilityMPH,Wind Direction,Wind SpeedMPH,Gust SpeedMPH,PrecipitationIn,Events,Conditions,WindDirDegrees,DateUTC
12:56 AM,57.9,51.1,78,29.85,-9999.0,SSW,4.6,-,N/A,,Unknown,200,2013-08-02 04:56:00
1:56 AM,57.0,51.1,81,29.83,-9999.0,South,6.9,-,N/A,,Unknown,190,2013-08-02 05:56:00
2:56 AM,55.9,52.0,87,29.81,-9999.0,SSW,5.8,-,N/A,,Unknown,200,2013-08-02 06:56:00
3:56 AM,55.9,52.0,87,29.79,-9999.0,South,6.9,-,N/A,,Unknown,190,2013-08-02 07:56:00
4:56 AM,57.9,52.0,81,29.78,-9999.0,SSW,5.8,-,N/A,,Unknown,200,2013-08-02 08:56:00
5:56 AM,60.1,55.9,86,29.80,-9999.0,SW,8.1,-,0.02,,Unknown,220,2013-08-02 09:56:00
6:56 AM,61.0,55.0,81,29.80,-9999.0,West,4.6,-,N/A,,Unknown,270,2013-08-02 10:56:00
7:56 AM,59.0,55.9,90,29.80,-9999.0,South,3.5,-,N/A,,Unknown,190,2013-08-02 11:56:00
8:56 AM,63.0,57.0,81,29.80,-9999.0,Variable,3.5,-,N/A,,Unknown,0,2013-08-02 12:56:00
9:56 AM,66.9,55.9,68,29.81,-9999.0,Calm,Calm,-,N/A,,Unknown,0,2013-08-02 13:56:00
10:56 AM,64.9,54.0,68,29.82,-9999.0,North,12.7,-,N/A,,Unknown,350,2013-08-02 14:56:00
11:56 AM,66.9,55.0,66,29.82,-9999.0,North,9.2,-,N/A,,Unknown,350,2013-08-02 15:56:00
12:56 PM,66.0,55.0,68,29.82,-9999.0,NNW,11.5,-,N/A,,Unknown,340,2013-08-02 16:56:00
1:56 PM,64.9,55.0,70,29.83,-9999.0,NNW,12.7,-,N/A,,Unknown,340,2013-08-02 17:56:00
2:56 PM,66.9,55.0,66,29.84,-9999.0,NW,11.5,-,N/A,,Unknown,320,2013-08-02 18:56:00
3:56 PM,66.9,55.0,66,29.84,-9999.0,NNW,10.4,-,N/A,,Unknown,330,2013-08-02 19:56:00
4:56 PM,68.0,55.0,63,29.85,-9999.0,NNW,8.1,-,N/A,,Unknown,330,2013-08-02 20:56:00
5:56 PM,66.9,55.0,66,29.86,-9999.0,NNW,11.5,19.6,N/A,,Unknown,330,2013-08-02 21:56:00
6:56 PM,66.9,55.0,66,29.86,-9999.0,NNW,8.1,-,N/A,,Unknown,340,2013-08-02 22:56:00
7:56 PM,64.9,55.0,70,29.88,-9999.0,NNW,9.2,-,N/A,,Unknown,330,2013-08-02 23:56:00
8:56 PM,63.0,55.0,75,29.89,-9999.0,NNW,5.8,-,N/A,,Unknown,330,2013-08-03 00:56:00
9:56 PM,63.0,53.1,70,29.90,-9999.0,WNW,4.6,-,N/A,,Unknown,300,2013-08-03 01:56:00
10:56 PM,63.0,52.0,67,29.91,-9999.0,Calm,Calm,-,N/A,,Unknown,0,2013-08-03 02:56:00
11:56 PM,55.0,51.1,86,29.92,-9999.0,South,3.5,-,N/A,,Unknown,170,2013-08-03 03:56:00